Main page
METAR-TAF:

METAR-TAF

Airports :

Lavan Island, Iran

Lavan Airport

latitude: 26-48-37N, longitude: 53-21-22E, elevation: 23 m

Current weather observation

The report was made 54 minutes ago, at 04:00 UTC
Wind 12 kt from the East/Southeast
Temperature 34°C
Humidity 63%
Pressure 1002 hPa
Visibility: 6000 m

METAR: OIBV 240400Z 11012KT 6000 NSC 34/26 Q1002

Time: 09:24 (04:54 UTC)


TAF: missing

Weather observations and forecasts of more than 4000 airports (METAR and TAF reports).

The available stations are represented by yellow and red dots on the map.

Hover mouse over dot to see the name of the station.

Then click to see weather observations and forecasts.

To change the map : click on the green buttons with a black cross to zoom in, on the green button with a dash to zoom out, or on the green arrows for adjacent maps.


METAR-TAF: